TimeEST,TemperatureF,Dew PointF,Humidity,Sea Level PressureIn,VisibilityMPH,Wind Direction,Wind SpeedMPH,Gust SpeedMPH,PrecipitationIn,Events,Conditions,WindDirDegrees,DateUTC
12:53 AM,37.9,36.0,93,29.91,5.0,ENE,13.8,24.2,0.12,Rain,Rain,70,2013-02-27 05:53:00
1:53 AM,39.0,37.0,93,29.84,5.0,ENE,17.3,24.2,0.14,Rain,Rain,60,2013-02-27 06:53:00
2:53 AM,41.0,39.0,93,29.79,3.0,East,12.7,23.0,0.05,Rain,Light Rain,80,2013-02-27 07:53:00
3:53 AM,42.1,39.9,92,29.74,4.0,ENE,16.1,26.5,0.04,Rain,Rain,70,2013-02-27 08:53:00
4:24 AM,42.8,39.2,87,29.72,2.5,ENE,13.8,23.0,0.06,Rain,Rain,60,2013-02-27 09:24:00
4:53 AM,42.1,39.9,92,29.70,3.0,NE,16.1,21.9,0.13,Rain,Light Rain,50,2013-02-27 09:53:00
5:53 AM,46.9,45.0,93,29.64,5.0,East,23.0,38.0,0.04,Rain,Light Rain,80,2013-02-27 10:53:00
6:39 AM,46.4,44.6,93,29.63,3.0,East,33.4,46.0,0.00,Rain,Light Rain,90,2013-02-27 11:39:00
6:53 AM,46.9,45.0,93,29.62,4.0,East,27.6,38.0,0.00,Rain,Light Rain,80,2013-02-27 11:53:00
7:53 AM,46.9,44.1,90,29.60,2.5,East,28.8,41.4,0.00,Rain,Light Rain,90,2013-02-27 12:53:00
8:04 AM,46.4,44.6,93,29.60,3.0,East,21.9,38.0,0.01,Rain,Rain,80,2013-02-27 13:04:00
8:11 AM,46.4,44.6,93,29.59,2.0,East,26.5,39.1,0.03,Rain,Heavy Rain,80,2013-02-27 13:11:00
8:27 AM,46.4,44.6,93,29.59,3.0,East,27.6,40.3,0.04,Rain,Rain,80,2013-02-27 13:27:00
8:53 AM,46.9,44.1,90,29.58,4.0,East,25.3,38.0,0.05,Rain,Light Rain,90,2013-02-27 13:53:00
9:25 AM,46.4,44.6,93,29.56,4.0,East,21.9,35.7,0.00,Rain,Light Rain,80,2013-02-27 14:25:00
9:43 AM,46.4,44.6,93,29.56,1.8,East,28.8,39.1,0.03,Rain,Rain,90,2013-02-27 14:43:00
9:53 AM,46.0,44.1,93,29.56,1.8,East,25.3,38.0,0.06,Rain,Rain,100,2013-02-27 14:53:00
10:03 AM,46.4,44.6,93,29.56,2.0,East,26.5,40.3,0.00,Rain,Light Rain,100,2013-02-27 15:03:00
10:13 AM,46.4,44.6,93,29.56,4.0,East,21.9,38.0,0.00,Rain,Light Rain,100,2013-02-27 15:13:00
10:45 AM,46.4,44.6,93,29.54,2.0,East,26.5,39.1,0.04,Rain,Rain,90,2013-02-27 15:45:00
10:53 AM,46.0,44.1,93,29.54,5.0,East,20.7,38.0,0.04,Rain,Light Rain,90,2013-02-27 15:53:00
11:12 AM,46.4,44.6,93,29.54,2.5,East,21.9,31.1,0.01,Rain,Light Rain,90,2013-02-27 16:12:00
11:32 AM,46.4,44.6,93,29.54,1.8,ESE,18.4,27.6,0.01,Rain,Light Rain,110,2013-02-27 16:32:00
11:51 AM,46.4,46.4,100,29.53,3.0,East,13.8,21.9,0.01,,Overcast,100,2013-02-27 16:51:00
11:53 AM,46.9,46.0,97,29.53,3.0,East,16.1,23.0,0.01,,Overcast,90,2013-02-27 16:53:00
12:22 PM,46.4,46.4,100,29.51,2.5,East,13.8,26.5,N/A,,Overcast,100,2013-02-27 17:22:00
12:34 PM,46.4,46.4,100,29.52,2.5,ESE,12.7,21.9,N/A,,Overcast,120,2013-02-27 17:34:00
12:43 PM,46.4,46.4,100,29.51,0.8,ESE,15.0,-,N/A,,Overcast,120,2013-02-27 17:43:00
12:53 PM,46.9,46.0,97,29.51,0.5,ESE,11.5,20.7,N/A,Fog,Fog,110,2013-02-27 17:53:00
1:20 PM,46.4,46.4,100,29.50,0.2,SE,10.4,-,N/A,Fog,Fog,130,2013-02-27 18:20:00
1:53 PM,45.0,45.0,100,29.52,0.2,SSE,11.5,-,N/A,Fog,Fog,160,2013-02-27 18:53:00
2:39 PM,46.4,46.4,100,29.51,1.0,South,6.9,-,N/A,,Mist,190,2013-02-27 19:39:00
2:53 PM,46.0,46.0,100,29.52,2.0,South,5.8,-,N/A,,Overcast,190,2013-02-27 19:53:00
3:10 PM,46.4,46.4,100,29.52,2.0,South,6.9,-,N/A,,Overcast,190,2013-02-27 20:10:00
3:25 PM,46.4,46.4,100,29.52,2.0,SSW,4.6,-,N/A,,Overcast,200,2013-02-27 20:25:00
3:53 PM,48.0,46.0,93,29.53,2.0,WSW,12.7,-,N/A,,Overcast,240,2013-02-27 20:53:00
4:10 PM,48.2,46.4,93,29.53,9.0,WSW,10.4,-,N/A,,Overcast,250,2013-02-27 21:10:00
4:50 PM,48.2,42.8,82,29.55,10.0,West,13.8,-,N/A,,Scattered Clouds,260,2013-02-27 21:50:00
4:51 PM,48.0,42.1,80,29.56,10.0,West,12.7,-,N/A,,Mostly Cloudy,260,2013-02-27 21:51:00
4:55 PM,48.2,42.8,82,29.55,10.0,West,11.5,-,N/A,,Mostly Cloudy,270,2013-02-27 21:55:00
5:06 PM,48.2,42.8,82,29.55,10.0,West,12.7,-,N/A,,Mostly Cloudy,260,2013-02-27 22:06:00
5:53 PM,48.0,39.9,74,29.58,10.0,West,12.7,-,N/A,,Overcast,260,2013-02-27 22:53:00
6:25 PM,46.4,37.4,71,29.60,10.0,West,16.1,23.0,N/A,,Scattered Clouds,270,2013-02-27 23:25:00
6:53 PM,46.0,36.0,68,29.61,10.0,West,13.8,-,N/A,,Clear,270,2013-02-27 23:53:00
7:53 PM,44.1,35.1,71,29.63,10.0,West,12.7,19.6,N/A,,Clear,280,2013-02-28 00:53:00
8:53 PM,43.0,34.0,71,29.65,10.0,West,9.2,-,N/A,,Clear,280,2013-02-28 01:53:00
9:53 PM,43.0,34.0,71,29.65,10.0,NW,9.2,-,N/A,,Clear,310,2013-02-28 02:53:00
10:53 PM,41.0,34.0,76,29.65,10.0,West,4.6,-,N/A,,Partly Cloudy,280,2013-02-28 03:53:00
11:53 PM,42.1,34.0,73,29.63,10.0,Calm,Calm,-,N/A,,Overcast,0,2013-02-28 04:53:00